| time (UTC) | temp F | wind direction | speed knots | gust knots | rain 1hr in | rain 24hr in | rain mn in | humidity % | barometer mb |
| 20260506214604 | 40 | 84 | 7.8 | 10.4 | 0.00 | 0.00 | 0.00 | 63 | 1012.5 |
| 20260506213056 | 40 | 86 | 7.0 | 10.4 | 0.00 | 0.00 | 0.00 | 62 | 1012.4 |
| 20260506211604 | 41 | 113 | 7.0 | 10.4 | 0.00 | 0.00 | 0.00 | 65 | 1012.2 |
| 20260506210056 | 41 | 73 | 7.0 | 10.4 | 0.00 | 0.00 | 0.00 | 64 | 1012.2 |
| 20260506204554 | 42 | 98 | 8.7 | 12.2 | 0.00 | 0.00 | 0.00 | 63 | 1012.3 |
| 20260506203052 | 43 | 63 | 7.0 | 12.2 | 0.00 | 0.00 | 0.00 | 65 | 1012.0 |
| 20260506201552 | 42 | 76 | 7.8 | 13.0 | 0.00 | 0.00 | 0.00 | 64 | 1012.1 |
| 20260506194556 | 43 | 112 | 8.7 | 13.0 | 0.00 | 0.00 | 0.00 | 65 | 1012.1 |
| 20260506193054 | 45 | 71 | 9.6 | 13.0 | 0.00 | 0.00 | 0.00 | 67 | 1012.1 |
| 20260506191557 | 44 | 57 | 10.4 | 16.5 | 0.00 | 0.00 | 0.00 | 68 | 1012.3 |
| 20260506190048 | 44 | 59 | 6.1 | 13.0 | 0.00 | 0.00 | 0.00 | 67 | 1012.1 |
| 20260506184550 | 46 | 48 | 9.6 | 12.2 | 0.00 | 0.00 | 0.00 | 68 | 1012.3 |
| 20260506183052 | 44 | 65 | 6.1 | 10.4 | 0.00 | 0.00 | 0.00 | 66 | 1012.4 |
| 20260506181556 | 45 | 43 | 8.7 | 12.2 | 0.00 | 0.00 | 0.00 | 69 | 1012.4 |
| 20260506180105 | 46 | 84 | 6.1 | 11.3 | 0.00 | 0.00 | 0.00 | 68 | 1012.5 |
| 20260506174545 | 44 | 49 | 6.1 | 13.0 | 0.00 | 0.00 | 0.00 | 67 | 1012.3 |
| 20260506173056 | 44 | 65 | 7.8 | 12.2 | 0.00 | 0.00 | 0.00 | 66 | 1012.2 |
| 20260506171545 | 47 | 5 | 6.1 | 9.6 | 0.00 | 0.00 | 0.00 | 57 | 1012.3 |
| 20260506170042 | 47 | 330 | 2.6 | 7.8 | 0.00 | 0.00 | 0.00 | 57 | 1012.5 |
| 20260506164542 | 46 | 360 | 6.1 | 11.3 | 0.00 | 0.00 | 0.00 | 56 | 1012.5 |
| 20260506163041 | 46 | 355 | 1.7 | 7.8 | 0.00 | 0.00 | 0.00 | 61 | 1012.5 |
| 20260506161540 | 47 | 30 | 5.2 | 10.4 | 0.00 | 0.00 | 0.00 | 59 | 1012.4 |
| 20260506160038 | 47 | 355 | 9.6 | 13.9 | 0.00 | 0.00 | 0.00 | 63 | 1012.4 |
| 20260506154537 | 45 | 311 | 3.5 | 9.6 | 0.00 | 0.00 | 0.00 | 59 | 1012.4 |
| 20260506153036 | 47 | 355 | 2.6 | 7.8 | 0.00 | 0.00 | 0.00 | 58 | 1012.4 |
| 20260506151534 | 44 | 314 | 6.1 | 10.4 | 0.00 | 0.00 | 0.00 | 62 | 1012.4 |
| 20260506150032 | 45 | 290 | 4.3 | 10.4 | 0.00 | 0.00 | 0.00 | 60 | 1012.2 |
| 20260506144538 | 45 | 11 | 5.2 | 11.3 | 0.00 | 0.00 | 0.00 | 61 | 1012.1 |
| 20260506143031 | 45 | 342 | 1.7 | 10.4 | 0.00 | 0.00 | 0.00 | 62 | 1011.9 |
| 20260506141533 | 44 | 11 | 8.7 | 13.0 | 0.00 | 0.00 | 0.00 | 61 | 1011.7 |
| 20260506140023 | 44 | 323 | 6.1 | 12.2 | 0.00 | 0.00 | 0.00 | 64 | 1011.5 |
| 20260506134518 | 43 | 342 | 6.1 | 12.2 | 0.00 | 0.00 | 0.00 | 66 | 1011.5 |
| 20260506133017 | 43 | 345 | 2.6 | 10.4 | 0.00 | 0.00 | 0.00 | 64 | 1011.5 |
| 20260506131510 | 41 | 350 | 7.8 | 16.5 | 0.00 | 0.00 | 0.00 | 65 | 1011.2 |
| 20260506130010 | 41 | 340 | 4.3 | 12.2 | 0.00 | 0.00 | 0.00 | 66 | 1011.2 |
| 20260506124506 | 40 | 19 | 8.7 | 13.9 | 0.00 | 0.00 | 0.00 | 65 | 1011.0 |
| 20260506123005 | 39 | 31 | 7.8 | 17.4 | 0.00 | 0.00 | 0.00 | 67 | 1010.7 |
| 20260506121501 | 38 | 5 | 11.3 | 16.5 | 0.00 | 0.00 | 0.00 | 68 | 1010.8 |
| 20260506120103 | 38 | 320 | 7.0 | 13.9 | 0.00 | 0.00 | 0.00 | 70 | 1010.7 |
| 20260506114555 | 38 | 343 | 7.0 | 11.3 | 0.00 | 0.00 | 0.00 | 70 | 1010.5 |
| 20260506113052 | 38 | 339 | 4.3 | 7.8 | 0.00 | 0.00 | 0.00 | 71 | 1010.7 |
| 20260506111548 | 37 | 333 | 3.5 | 8.7 | 0.00 | 0.00 | 0.00 | 72 | 1010.3 |
| 20260506110046 | 36 | 9 | 5.2 | 11.3 | 0.00 | 0.00 | 0.00 | 72 | 1009.6 |
| 20260506104547 | 36 | 347 | 5.2 | 9.6 | 0.00 | 0.00 | 0.00 | 72 | 1009.2 |
| 20260506103041 | 36 | 349 | 4.3 | 11.3 | 0.00 | 0.00 | 0.00 | 72 | 1008.9 |
| 20260506101539 | 36 | 24 | 4.3 | 10.4 | 0.00 | 0.00 | 0.00 | 73 | 1008.7 |
| 20260506100038 | 36 | 10 | 7.0 | 11.3 | 0.00 | 0.00 | 0.00 | 73 | 1008.4 |
| 20260506094537 | 36 | 13 | 4.3 | 8.7 | 0.00 | 0.00 | 0.00 | 73 | 1008.6 |
| 20260506093040 | 36 | 19 | 6.1 | 10.4 | 0.00 | 0.00 | 0.00 | 73 | 1008.6 |
| 20260506091534 | 36 | 355 | 6.1 | 10.4 | 0.00 | 0.00 | 0.00 | 74 | 1008.5 |
| 20260506090031 | 36 | 5 | 4.3 | 11.3 | 0.00 | 0.00 | 0.00 | 74 | 1008.9 |
| 20260506084535 | 37 | 355 | 6.1 | 10.4 | 0.00 | 0.00 | 0.00 | 75 | 1008.6 |
| 20260506083025 | 37 | 307 | 4.3 | 11.3 | 0.00 | 0.00 | 0.00 | 75 | 1008.7 |
| 20260506081522 | 38 | 355 | 7.0 | 13.0 | 0.00 | 0.00 | 0.00 | 76 | 1008.4 |
| 20260506073012 | 40 | 350 | 3.5 | 13.0 | 0.00 | 0.00 | 0.00 | 70 | 1008.2 |
| 20260506071511 | 40 | 355 | 5.2 | 12.2 | 0.00 | 0.00 | 0.00 | 68 | 1007.9 |
| 20260506061507 | 41 | 5 | 5.2 | 11.3 | 0.00 | 0.00 | 0.00 | 65 | 1007.3 |
| 20260506044601 | 40 | 11 | 4.3 | 8.7 | 0.00 | 0.00 | 0.00 | 74 | 1007.6 |
| 20260506043101 | 40 | 5 | 5.2 | 9.6 | 0.00 | 0.00 | 0.00 | 73 | 1007.7 |
| 20260506041556 | 40 | 10 | 6.1 | 9.6 | 0.00 | 0.00 | 0.00 | 76 | 1007.5 |
| 20260506040050 | 40 | 20 | 6.1 | 11.3 | 0.00 | 0.00 | 0.00 | 80 | 1007.1 |
| 20260506034553 | 41 | 360 | 3.5 | 8.7 | 0.00 | 0.00 | 0.00 | 80 | 1007.2 |
| 20260506033042 | 44 | 331 | 5.2 | 11.3 | 0.00 | 0.00 | 0.00 | 72 | 1007.0 |
| 20260506031540 | 46 | 251 | 1.7 | 3.5 | 0.00 | 0.00 | 0.00 | 65 | 1006.6 |
| 20260506030039 | 46 | 238 | 0.9 | 2.6 | 0.00 | 0.00 | 0.00 | 64 | 1006.6 |
| 20260506024538 | 47 | 238 | 0.0 | 2.6 | 0.00 | 0.00 | 0.00 | 63 | 1006.9 |
| 20260506023036 | 48 | 242 | 1.7 | 3.5 | 0.00 | 0.00 | 0.00 | 61 | 1006.6 |
| 20260506021544 | 49 | 230 | 2.6 | 4.3 | 0.00 | 0.00 | 0.00 | 59 | 1006.5 |
| 20260506020034 | 50 | 222 | 2.6 | 6.1 | 0.00 | 0.00 | 0.00 | 58 | 1006.4 |
| 20260506014532 | 50 | 225 | 3.5 | 6.1 | 0.00 | 0.00 | 0.00 | 59 | 1006.2 |
| 20260506013033 | 51 | 221 | 1.7 | 4.3 | 0.00 | 0.00 | 0.00 | 60 | 1006.1 |
| 20260506011548 | 50 | 194 | 0.9 | 3.5 | 0.00 | 0.00 | 0.00 | 65 | 1006.0 |
| 20260506010029 | 49 | 141 | 0.0 | 1.7 | 0.00 | 0.00 | 0.00 | 77 | 1006.0 |
| 20260506004539 | 49 | 141 | 0.0 | 1.7 | 0.00 | 0.00 | 0.00 | 77 | 1005.9 |
| 20260506003030 | 49 | 141 | 0.0 | 2.6 | 0.00 | 0.00 | 0.00 | 77 | 1005.8 |
| 20260506001527 | 50 | 141 | 1.7 | 2.6 | 0.00 | 0.00 | 0.00 | 76 | 1005.7 |
| 20260506000026 | 50 | 38 | 0.0 | 0.0 | 0.00 | 0.00 | 0.00 | 74 | 1005.4 |
| 20260505234528 | 51 | 38 | 0.9 | 2.6 | 0.00 | 0.00 | 0.00 | 73 | 1005.2 |
| 20260505233031 | 51 | 38 | 0.0 | 2.6 | 0.00 | 0.00 | 0.00 | 72 | 1005.1 |
| 20260505231531 | 51 | 38 | 2.6 | 9.6 | 0.00 | 0.00 | 0.00 | 70 | 1005.1 |
| 20260505230026 | 56 | 355 | 0.9 | 9.6 | 0.00 | 0.00 | 0.00 | 47 | 1005.1 |
| 20260505224522 | 56 | 238 | 2.6 | 7.8 | 0.00 | 0.00 | 0.00 | 45 | 1005.0 |
| 20260505223020 | 56 | 217 | 1.7 | 6.1 | 0.00 | 0.00 | 0.00 | 64 | 1005.1 |
| 20260505221519 | 56 | 223 | 2.6 | 7.8 | 0.00 | 0.00 | 0.00 | 65 | 1005.1 |
| 20260505220040 | 56 | 230 | 5.2 | 8.7 | 0.00 | 0.00 | 0.00 | 64 | 1005.0 |